WZZ979 EPKK-LHBP

Flight info

Callsign WZZ979
Flight time N/A
Altitude 26000
Route BABKO DCT NIDOK/N0362F250 DCT EDEMU
Aircraft A21N/M-SDE1E2E3FGIJ1J4RWXY/LB1

Departure

Time 2026-05-01 13:12
Airport Kraków John Paul II International Airport (EPKK)

Arrival

Time N/A
Airport Budapest Liszt Ferenc International Airport (LHBP)
Time Latitude Longitude Altitude Speed Heading
2026-05-01 12:37 50.07296 19.79882 801 ft 0 kts 167°
2026-05-01 12:57 50.07298 19.79881 801 ft 0 kts 167°
2026-05-01 12:59 50.07314 19.79877 801 ft 2 kts 167°
2026-05-01 12:59 50.07328 19.79871 801 ft 2 kts 166°
2026-05-01 12:59 50.07355 19.79862 801 ft 0 kts 167°
2026-05-01 13:00 50.07375 19.79836 801 ft 2 kts 104°
2026-05-01 13:00 50.07376 19.79820 801 ft 0 kts 80°
2026-05-01 13:01 50.07374 19.79809 801 ft 0 kts 77°
2026-05-01 13:07 50.07375 19.79818 801 ft 4 kts 77°
2026-05-01 13:07 50.07390 19.79932 801 ft 16 kts 81°
2026-05-01 13:08 50.07418 19.80140 801 ft 20 kts 78°
2026-05-01 13:08 50.07450 19.80349 801 ft 18 kts 60°
2026-05-01 13:08 50.07565 19.80415 801 ft 17 kts 12°
2026-05-01 13:08 50.07683 19.80386 801 ft 17 kts 349°
2026-05-01 13:09 50.07738 19.80367 801 ft 5 kts 347°
2026-05-01 13:09 50.07782 19.80351 801 ft 7 kts 347°
2026-05-01 13:09 50.07834 19.80334 801 ft 4 kts 348°
2026-05-01 13:09 50.07834 19.80333 801 ft 0 kts 348°
2026-05-01 13:10 50.07863 19.80324 801 ft 13 kts 347°
2026-05-01 13:11 50.07961 19.80287 801 ft 5 kts 346°
2026-05-01 13:11 50.08003 19.80260 801 ft 8 kts 314°
2026-05-01 13:11 50.08010 19.80198 801 ft 0 kts 257°
2026-05-01 13:11 50.08006 19.80167 801 ft 14 kts 257°
2026-05-01 13:12 50.07926 19.79592 801 ft 93 kts 257°
2026-05-01 13:12 50.07742 19.78254 804 ft 156 kts 258°
2026-05-01 13:12 50.07494 19.76525 1297 ft 168 kts 258°
2026-05-01 13:12 50.07165 19.74768 1967 ft 175 kts 255°
2026-05-01 13:13 50.06856 19.72997 2767 ft 169 kts 260°
2026-05-01 13:13 50.06623 19.71158 3198 ft 180 kts 263°
2026-05-01 13:13 50.06387 19.69185 3566 ft 196 kts 263°
2026-05-01 13:13 50.06018 19.67050 3919 ft 218 kts 247°
2026-05-01 13:14 50.04854 19.65337 4217 ft 247 kts 206°
2026-05-01 13:14 50.03159 19.64492 4702 ft 265 kts 195°
2026-05-01 13:14 50.01318 19.63835 5236 ft 280 kts 193°
2026-05-01 13:14 49.99420 19.63155 6009 ft 286 kts 195°
2026-05-01 13:15 49.97487 19.62415 6816 ft 290 kts 195°
2026-05-01 13:15 49.95505 19.61607 7631 ft 296 kts 195°
2026-05-01 13:15 49.93527 19.60776 8388 ft 302 kts 195°
2026-05-01 13:15 49.91500 19.59913 9143 ft 308 kts 195°
2026-05-01 13:16 49.89418 19.59023 9933 ft 313 kts 194°
2026-05-01 13:16 49.87288 19.58110 10583 ft 324 kts 194°
2026-05-01 13:16 49.85082 19.57170 11003 ft 341 kts 194°
2026-05-01 13:17 49.77960 19.54120 13000 ft 363 kts 193°
2026-05-01 13:17 49.75529 19.53082 13696 ft 368 kts 193°
2026-05-01 13:18 49.70561 19.50959 15047 ft 378 kts 193°
2026-05-01 13:18 49.68014 19.49875 15699 ft 382 kts 193°
2026-05-01 13:18 49.65453 19.48785 16257 ft 390 kts 193°
2026-05-01 13:18 49.62820 19.47615 16864 ft 396 kts 196°
2026-05-01 13:19 49.60260 19.46070 17510 ft 401 kts 203°
2026-05-01 13:19 49.57795 19.44083 18110 ft 406 kts 208°
2026-05-01 13:19 49.52874 19.39648 19282 ft 415 kts 210°
2026-05-01 13:20 49.50377 19.37386 19858 ft 418 kts 210°
2026-05-01 13:20 49.47869 19.35132 20454 ft 421 kts 209°
2026-05-01 13:20 49.45362 19.32890 21160 ft 419 kts 208°
2026-05-01 13:21 49.40335 19.28423 22506 ft 418 kts 208°
2026-05-01 13:21 49.37817 19.26194 23128 ft 418 kts 208°
2026-05-01 13:21 49.35313 19.23983 23755 ft 418 kts 208°
2026-05-01 13:21 49.32804 19.21770 24195 ft 418 kts 208°
2026-05-01 13:22 49.30277 19.19543 24299 ft 418 kts 208°
2026-05-01 13:22 49.27794 19.17358 24304 ft 417 kts 208°
2026-05-01 13:22 49.25288 19.15154 24304 ft 417 kts 208°
2026-05-01 13:22 49.22773 19.12946 24308 ft 416 kts 208°
2026-05-01 13:23 49.20253 19.10734 24312 ft 417 kts 208°
2026-05-01 13:23 49.17758 19.08549 24315 ft 417 kts 208°
2026-05-01 13:23 49.15232 19.06336 24319 ft 417 kts 208°
2026-05-01 13:23 49.12726 19.04140 24319 ft 417 kts 209°
2026-05-01 13:24 49.10238 19.01903 24311 ft 415 kts 202°
2026-05-01 13:24 49.07520 19.00820 24303 ft 403 kts 176°
2026-05-01 13:24 49.04829 19.01422 24316 ft 386 kts 151°
2026-05-01 13:25 48.99983 19.04958 24320 ft 390 kts 148°
2026-05-01 13:25 48.97475 19.06477 24314 ft 393 kts 152°
2026-05-01 13:25 48.94877 19.07787 24313 ft 394 kts 155°
2026-05-01 13:25 48.92263 19.08920 24314 ft 395 kts 157°